{"data":{"norad_id":55825,"epoch":"2026-05-25T04:05:57.444000Z","epoch_age_seconds":59693,"freshness":"FRESH","line1":"1 55825U 23029AF  26145.17080375  .00000287  00000+0  74075-3 0  9992","line2":"2 55825  87.8934 294.3159 0001665  88.1752 271.9568 13.14501630156383","mean_motion":13.1450163,"eccentricity":0.0001665,"inclination_deg":87.8934,"raan_deg":294.3159,"arg_perigee_deg":88.1752,"mean_anomaly_deg":271.9568,"bstar":0.00074075,"rev_number":15638,"period_min":109.54722056906,"perigee_km":1204.5321301461,"apogee_km":1207.0575794538,"semimajor_km":7583.9318548,"source":"CELESTRAK","updated_at":"2026-05-25T13:38:22.696639Z"}}